Wind_Speed
78 79 77 74 70 72 74 76 77 77 78 76 74 72 72 71 73 73 78 77 77 74 71 68 64 61 58 57 57 53 52 50
78 82 82 79 75 77 77 80 80 79 77 77 77 75 75 77 72 74 76 75 71 67 66 64 62 60 57 55 54 51 48 48
77 81 87 84 83 83 83 82 84 82 79 80 81 79 81 72 72 72 71 70 64 64 63 63 61 59 58 55 49 48 49 49
77 81 88 89 89 87 88 86 86 86 85 84 85 80 73 69 69 68 67 67 65 65 63 62 59 56 54 51 48 46 46 52
81 85 88 86 89 89 92 91 89 89 89 85 80 75 69 67 67 68 70 71 75 67 62 58 54 51 48 48 48 48 49 51
79 82 84 84 85 88 89 87 88 89 85 83 79 75 73 72 72 75 75 77 74 64 58 54 48 43 43 44 47 50 53 56
74 76 77 78 79 79 83 79 80 83 82 80 77 75 74 74 74 76 79 74 61 55 51 45 42 42 43 45 49 54 56 58
68 70 71 72 72 71 72 77 75 78 78 77 76 72 72 71 68 68 66 57 50 48 42 40 40 42 46 50 55 57 59 62
59 62 62 62 64 64 65 68 70 71 71 69 69 66 69 68 63 57 50 48 46 43 42 43 44 48 52 56 58 59 60 61
58 58 58 56 55 56 56 59 61 63 64 62 58 58 61 56 51 48 46 45 45 46 46 48 52 55 58 61 62 63 63 65
56 56 56 55 53 52 52 53 53 54 55 55 53 51 50 49 46 44 45 47 47 49 51 54 57 61 62 62 61 59 59 61
62 61 59 56 54 52 52 52 51 51 51 51 50 49 49 46 46 47 48 49 51 52 54 55 58 61 61 61 59 58 57 58
66 64 62 60 58 56 55 55 54 53 52 52 52 52 50 50 50 50 51 52 53 54 56 58 59 59 56 55 57 57 59 62
69 65 60 58 57 56 55 56 56 54 53 53 53 52 52 53 53 53 53 53 54 55 56 55 54 53 54 55 58 61 61 61
71 68 64 60 59 57 56 56 56 54 54 54 53 53 53 54 53 53 52 51 51 51 51 50 49 51 55 58 57 57 56 56
76 72 69 66 62 61 58 56 56 54 54 54 53 53 53 53 53 51 49 47 47 46 45 44 46 52 54 54 58 58 56 54
78 75 72 68 64 61 59 58 56 54 54 53 52 52 52 50 48 47 44 42 41 39 39 42 47 49 52 55 57 55 52 48
76 72 67 64 61 59 58 57 55 53 51 50 49 47 45 41 40 38 37 36 34 34 38 41 43 49 53 55 54 50 47 44
72 66 64 60 56 53 51 47 45 44 43 42 39 37 34 33 31 30 29 28 30 34 36 37 43 48 53 54 53 48 44 42
Wind_Direction
297 297 297 300 298 297 296 293 292 293 294 296 296 297 298 297 295 290 290 292 293 294 294 292 291 289 289 287 285 279 272 263
300 299 300 301 298 295 295 296 296 298 298 298 298 299 298 296 291 288 293 295 295 294 295 292 290 288 286 285 281 275 265 258
298 297 299 300 301 300 299 297 298 298 298 297 298 297 297 294 291 294 295 296 295 294 294 291 288 288 287 283 274 266 262 259
296 296 297 299 300 299 296 298 297 297 297 297 296 298 297 296 296 296 298 300 299 297 294 290 287 286 283 279 273 268 260 256
297 295 296 297 295 296 296 297 297 297 298 299 300 303 303 300 300 301 303 304 304 298 293 288 285 282 277 274 273 270 268 265
296 295 294 294 293 292 293 296 297 298 300 302 305 304 305 304 304 305 305 305 300 296 292 288 282 276 275 272 269 267 267 266
296 295 294 292 292 292 292 294 295 296 298 301 302 303 303 302 303 303 302 300 296 294 289 285 279 276 275 274 272 269 266 263
294 294 294 294 294 293 290 293 293 293 297 299 301 301 300 302 302 302 298 296 297 290 286 281 280 280 279 278 276 274 272 270
301 298 298 298 296 295 293 292 292 294 297 298 299 299 299 300 300 295 296 297 292 288 286 286 287 286 284 281 279 278 278 276
305 303 302 300 297 296 295 293 294 296 298 298 297 298 298 295 295 295 294 291 290 292 294 295 292 289 285 284 284 282 280 277
309 310 309 308 304 302 300 297 297 299 299 298 296 294 293 293 293 292 290 292 296 299 298 296 293 292 292 293 292 288 283 278
319 316 315 312 310 307 304 301 297 296 297 297 297 294 293 294 294 294 297 300 301 300 299 298 298 297 299 297 295 292 286 282
319 318 316 313 309 305 303 301 298 297 297 296 293 295 297 296 297 299 300 301 302 302 302 300 301 303 301 300 296 295 293 290
319 316 312 307 304 303 301 297 296 297 296 295 294 294 294 295 297 299 300 303 304 303 303 306 308 307 304 302 304 301 296 290
317 316 314 309 305 302 299 298 297 296 294 293 293 294 294 297 298 300 303 304 305 305 307 311 310 309 308 309 306 304 301 297
317 317 314 310 307 304 301 298 296 294 292 293 293 295 297 298 300 303 306 307 305 307 311 313 312 310 312 317 316 312 309 303
316 314 311 308 305 303 300 297 295 294 293 293 294 295 297 300 305 306 306 306 309 312 316 314 314 318 323 324 320 318 314 310
313 310 308 305 302 300 299 296 294 293 293 293 294 296 298 303 302 301 306 309 316 319 316 318 323 326 327 329 328 324 323 320
311 309 306 304 301 299 298 296 294 293 293 293 295 297 300 298 302 304 310 319 320 320 321 326 328 329 333 337 336 335 334 333
Height
10617 10611 10605 10604 10600 10593 10589 10581 10574 10568 10561 10555 10550 10545 10539 10532 10525 10517 10510 10504 10497 10491 10484 10478 10472 10466 10463 10459 10456 10455 10451 10452
10605 10590 10585 10586 10582 10576 10570 10560 10554 10549 10543 10537 10532 10528 10521 10515 10507 10499 10491 10485 10478 10470 10465 10459 10454 10449 10446 10444 10440 10438 10437 10437
10591 10576 10565 10564 10561 10555 10548 10540 10533 10529 10526 10521 10516 10511 10503 10495 10487 10480 10472 10466 10459 10453 10446 10441 10436 10431 10428 10427 10425 10423 10422 10422
10579 10569 10554 10548 10539 10536 10529 10524 10515 10509 10505 10501 10496 10491 10482 10475 10468 10461 10454 10448 10442 10435 10428 10421 10417 10413 10411 10410 10410 10410 10409 10407
10564 10554 10544 10538 10525 10516 10506 10503 10499 10491 10484 10480 10474 10467 10461 10456 10449 10443 10437 10431 10423 10416 10410 10405 10401 10398 10396 10396 10395 10395 10395 10393
10548 10539 10531 10523 10512 10502 10493 10485 10475 10469 10463 10458 10453 10446 10441 10434 10429 10423 10418 10411 10405 10398 10393 10389 10386 10384 10383 10382 10381 10380 10380 10379
10533 10524 10515 10505 10495 10487 10478 10471 10464 10454 10448 10442 10438 10431 10425 10418 10412 10408 10402 10395 10390 10384 10380 10376 10373 10371 10370 10368 10366 10363 10362 10363
10518 10508 10498 10488 10481 10474 10465 10456 10450 10442 10435 10429 10422 10417 10410 10403 10397 10390 10386 10381 10375 10373 10368 10364 10361 10360 10357 10354 10349 10346 10344 10342
10504 10494 10486 10477 10467 10459 10452 10444 10435 10429 10421 10415 10409 10402 10397 10390 10383 10376 10371 10367 10365 10361 10356 10353 10349 10346 10342 10338 10333 10329 10326 10322
10489 10481 10472 10463 10455 10446 10438 10430 10421 10414 10408 10402 10397 10389 10383 10377 10372 10366 10361 10359 10353 10348 10343 10339 10334 10329 10324 10319 10316 10312 10308 10302
10477 10468 10458 10448 10440 10433 10426 10418 10411 10404 10398 10390 10384 10378 10373 10366 10361 10356 10352 10348 10342 10336 10330 10324 10318 10311 10306 10300 10295 10290 10284 10278
10462 10453 10443 10435 10426 10419 10412 10405 10399 10392 10385 10378 10372 10366 10362 10355 10351 10346 10340 10335 10329 10323 10316 10309 10302 10295 10289 10280 10273 10266 10259 10253
10448 10439 10430 10421 10412 10406 10398 10391 10385 10378 10372 10365 10360 10354 10348 10344 10339 10334 10328 10321 10316 10309 10302 10295 10287 10280 10271 10263 10253 10246 10238 10230
10436 10428 10420 10411 10401 10392 10384 10377 10370 10364 10358 10352 10346 10340 10335 10331 10326 10321 10315 10309 10302 10295 10288 10281 10273 10264 10255 10246 10238 10227 10217 10208
10421 10410 10400 10392 10384 10377 10370 10363 10355 10350 10343 10337 10332 10327 10322 10318 10313 10307 10303 10297 10290 10283 10276 10269 10260 10250 10241 10231 10221 10208 10196 10185
10400 10390 10380 10372 10364 10357 10350 10344 10339 10334 10328 10323 10319 10314 10310 10306 10301 10296 10292 10286 10279 10272 10265 10257 10249 10240 10229 10217 10202 10188 10176 10164
10381 10371 10360 10351 10344 10337 10331 10326 10322 10318 10313 10309 10306 10302 10298 10295 10291 10286 10279 10273 10268 10263 10256 10249 10240 10229 10217 10204 10188 10172 10157 10146
10363 10352 10343 10334 10327 10320 10314 10308 10304 10301 10298 10296 10293 10290 10287 10284 10279 10274 10270 10264 10260 10255 10249 10240 10230 10219 10206 10191 10175 10158 10145 10132
10342 10334 10324 10315 10308 10301 10296 10292 10289 10287 10285 10282 10280 10278 10276 10272 10269 10266 10263 10258 10253 10248 10240 10232 10222 10211 10198 10181 10163 10148 10133 10121